Location: Poughquag
(41.6090°N, 73.6820°W)
Time: 03:27:59
(UTC-04:00)

Vanguard 2 - Pass Details

Date: 29 May 2020
Orbit: 552 x 2938 km, 32.9° (Epoch: 06 July)

Event Time Altitude Azimuth Distance (km) Brightness Sun altitude
Rises 23:49:17 0° 265° (W) 4,328 11.5 -24.9°
Reaches altitude 10° 23:53:07 10° 256° (WSW) 2,952 10.5 -25.1°
Enters shadow 23:56:16 22° 237° (WSW) 1,926 9.4 -25.2°
Maximum altitude 23:58:48 29° 198° (SSW) 1,444 - -25.4°
Drops below altitude 10° 00:02:52 10° 138° (SE) 2,070 - -25.5°
Sets 00:05:06 0° 126° (SE) 2,842 - -25.6°
